TimeEST,TemperatureF,Dew PointF,Humidity,Sea Level PressureIn,VisibilityMPH,Wind Direction,Wind SpeedMPH,Gust SpeedMPH,PrecipitationIn,Events,Conditions,WindDirDegrees,DateUTC
12:15 AM,32.0,26.6,80,29.35,1.8,NW,6.9,-,N/A,,Overcast,310,2012-03-03 05:15:00
12:35 AM,32.0,26.6,80,29.34,1.8,NW,8.1,-,0.01,,Overcast,310,2012-03-03 05:35:00
12:55 AM,32.0,26.6,80,29.33,2.0,NW,9.2,-,0.01,,Overcast,310,2012-03-03 05:55:00
1:15 AM,32.0,26.6,80,29.32,2.0,NW,10.4,-,0.01,,Overcast,310,2012-03-03 06:15:00
1:35 AM,32.0,26.6,80,29.31,2.5,NW,12.7,-,0.01,,Overcast,310,2012-03-03 06:35:00
1:55 AM,32.0,26.6,80,29.31,2.0,WNW,11.5,17.3,0.01,,Overcast,300,2012-03-03 06:55:00
2:15 AM,32.0,26.6,80,29.31,2.0,NW,11.5,-,N/A,,Overcast,310,2012-03-03 07:15:00
2:35 AM,32.0,26.6,80,29.30,2.0,WNW,11.5,-,N/A,,Overcast,300,2012-03-03 07:35:00
2:55 AM,32.0,26.6,80,29.30,1.8,WNW,11.5,-,0.01,,Overcast,300,2012-03-03 07:55:00
3:15 AM,32.0,26.6,80,29.30,2.0,WNW,12.7,17.3,N/A,,Overcast,300,2012-03-03 08:15:00
3:35 AM,32.0,26.6,80,29.30,2.5,WNW,11.5,16.1,N/A,,Overcast,300,2012-03-03 08:35:00
3:55 AM,32.0,26.6,80,29.30,2.0,NW,10.4,16.1,N/A,,Overcast,310,2012-03-03 08:55:00
4:15 AM,32.0,26.6,80,29.29,2.0,WNW,11.5,17.3,N/A,,Overcast,290,2012-03-03 09:15:00
4:35 AM,32.0,26.6,80,29.30,2.5,WNW,9.2,-,N/A,,Overcast,300,2012-03-03 09:35:00
4:55 AM,32.0,26.6,80,29.30,3.0,WNW,10.4,-,N/A,,Overcast,300,2012-03-03 09:55:00
5:15 AM,32.0,26.6,80,29.30,3.0,WNW,10.4,-,N/A,,Overcast,300,2012-03-03 10:15:00
5:35 AM,32.0,26.6,80,29.31,4.0,WNW,9.2,-,N/A,,Overcast,300,2012-03-03 10:35:00
5:55 AM,32.0,26.6,80,29.32,2.5,WNW,8.1,-,N/A,,Overcast,300,2012-03-03 10:55:00
6:15 AM,32.0,26.6,80,29.33,3.0,NW,6.9,-,N/A,,Overcast,320,2012-03-03 11:15:00
6:35 AM,32.0,26.6,80,29.33,2.5,WNW,8.1,-,N/A,,Overcast,290,2012-03-03 11:35:00
6:55 AM,32.0,24.8,75,29.34,3.0,NW,9.2,-,N/A,,Overcast,320,2012-03-03 11:55:00
7:15 AM,30.2,24.8,80,29.35,2.5,NW,8.1,-,N/A,,Overcast,310,2012-03-03 12:15:00
7:35 AM,30.2,24.8,80,29.36,1.8,NNW,11.5,19.6,N/A,,Overcast,330,2012-03-03 12:35:00
7:55 AM,30.2,23.0,75,29.37,2.0,NNW,11.5,18.4,N/A,,Overcast,330,2012-03-03 12:55:00
8:15 AM,30.2,21.2,69,29.39,2.0,NNW,10.4,16.1,N/A,,Overcast,330,2012-03-03 13:15:00
8:35 AM,30.2,21.2,69,29.39,3.0,NNW,12.7,-,N/A,,Mostly Cloudy,330,2012-03-03 13:35:00
8:55 AM,28.4,19.4,69,29.40,3.0,NNW,13.8,19.6,N/A,,Overcast,330,2012-03-03 13:55:00
9:15 AM,28.4,19.4,69,29.42,3.0,NNW,10.4,20.7,N/A,,Overcast,330,2012-03-03 14:15:00
9:35 AM,28.4,19.4,69,29.43,5.0,NNW,16.1,25.3,N/A,,Overcast,340,2012-03-03 14:35:00
9:55 AM,28.4,19.4,69,29.44,3.0,NNW,15.0,19.6,N/A,,Overcast,340,2012-03-03 14:55:00
10:15 AM,26.6,17.6,69,29.45,9.0,NNW,16.1,21.9,N/A,,Overcast,330,2012-03-03 15:15:00
10:35 AM,26.6,17.6,69,29.46,5.0,NNW,10.4,19.6,N/A,,Overcast,340,2012-03-03 15:35:00
10:55 AM,26.6,17.6,69,29.47,4.0,NW,10.4,20.7,N/A,,Overcast,320,2012-03-03 15:55:00
11:15 AM,26.6,17.6,69,29.48,5.0,NW,13.8,21.9,N/A,,Mostly Cloudy,320,2012-03-03 16:15:00
11:35 AM,26.6,17.6,69,29.48,8.0,NNW,12.7,20.7,N/A,,Overcast,330,2012-03-03 16:35:00
11:55 AM,26.6,17.6,69,29.50,3.0,NNW,11.5,-,N/A,,Overcast,330,2012-03-03 16:55:00
12:15 PM,26.6,17.6,69,29.51,7.0,NNW,11.5,23.0,N/A,,Mostly Cloudy,340,2012-03-03 17:15:00
12:35 PM,26.6,15.8,64,29.52,10.0,NNW,12.7,20.7,N/A,,Overcast,330,2012-03-03 17:35:00
12:55 PM,26.6,17.6,69,29.53,10.0,NNW,11.5,20.7,N/A,,Overcast,340,2012-03-03 17:55:00
1:15 PM,26.6,15.8,64,29.53,8.0,NNW,15.0,21.9,N/A,,Overcast,330,2012-03-03 18:15:00
1:35 PM,26.6,17.6,69,29.54,10.0,NNW,11.5,23.0,N/A,,Overcast,340,2012-03-03 18:35:00
1:55 PM,26.6,15.8,64,29.55,9.0,NNW,15.0,21.9,N/A,,Mostly Cloudy,330,2012-03-03 18:55:00
2:15 PM,26.6,15.8,64,29.56,10.0,NNW,13.8,21.9,N/A,,Overcast,330,2012-03-03 19:15:00
2:35 PM,26.6,15.8,64,29.56,10.0,North,12.7,19.6,N/A,,Mostly Cloudy,350,2012-03-03 19:35:00
2:55 PM,26.6,14.0,59,29.57,10.0,NNW,15.0,25.3,N/A,,Mostly Cloudy,340,2012-03-03 19:55:00
3:15 PM,26.6,14.0,59,29.59,10.0,NNW,11.5,20.7,N/A,,Overcast,340,2012-03-03 20:15:00
3:35 PM,26.6,14.0,59,29.60,10.0,NNW,12.7,18.4,N/A,,Overcast,340,2012-03-03 20:35:00
3:55 PM,26.6,12.2,55,29.61,10.0,NNW,11.5,19.6,N/A,,Overcast,330,2012-03-03 20:55:00
4:15 PM,24.8,14.0,64,29.63,10.0,North,9.2,18.4,N/A,,Overcast,350,2012-03-03 21:15:00
4:35 PM,24.8,12.2,59,29.64,10.0,NNW,12.7,-,N/A,,Overcast,340,2012-03-03 21:35:00
4:55 PM,24.8,12.2,59,29.66,10.0,NNW,16.1,25.3,N/A,,Overcast,340,2012-03-03 21:55:00
5:15 PM,24.8,12.2,59,29.67,10.0,NNW,13.8,20.7,N/A,,Overcast,330,2012-03-03 22:15:00
5:35 PM,24.8,12.2,59,29.68,3.0,NNW,11.5,17.3,N/A,,Overcast,340,2012-03-03 22:35:00
5:55 PM,23.0,12.2,63,29.69,3.0,NNW,12.7,18.4,N/A,,Overcast,340,2012-03-03 22:55:00
6:15 PM,23.0,12.2,63,29.71,3.0,NNW,9.2,18.4,N/A,,Overcast,330,2012-03-03 23:15:00
6:35 PM,21.2,12.2,68,29.72,3.0,NNW,9.2,-,N/A,,Overcast,330,2012-03-03 23:35:00
6:55 PM,21.2,12.2,68,29.73,4.0,NNW,8.1,-,N/A,,Overcast,330,2012-03-03 23:55:00
7:15 PM,21.2,12.2,68,29.74,3.0,NNW,9.2,17.3,N/A,,Overcast,330,2012-03-04 00:15:00
7:35 PM,21.2,10.4,63,29.74,8.0,NNW,10.4,-,N/A,,Overcast,330,2012-03-04 00:35:00
7:55 PM,21.2,10.4,63,29.75,7.0,NNW,8.1,-,N/A,,Overcast,330,2012-03-04 00:55:00
8:15 PM,19.4,10.4,68,29.75,9.0,NNW,9.2,-,N/A,,Overcast,330,2012-03-04 01:15:00
8:35 PM,19.4,10.4,68,29.76,10.0,NW,9.2,-,N/A,,Overcast,310,2012-03-04 01:35:00
8:55 PM,19.4,10.4,68,29.77,10.0,NW,8.1,-,N/A,,Overcast,310,2012-03-04 01:55:00
9:15 PM,19.4,10.4,68,29.77,10.0,NW,8.1,-,N/A,,Overcast,310,2012-03-04 02:15:00
9:35 PM,19.4,10.4,68,29.77,10.0,WNW,8.1,-,N/A,,Overcast,300,2012-03-04 02:35:00
9:55 PM,19.4,10.4,68,29.78,10.0,WNW,8.1,-,N/A,,Overcast,300,2012-03-04 02:55:00
10:15 PM,19.4,10.4,68,29.78,10.0,NW,8.1,-,N/A,,Overcast,310,2012-03-04 03:15:00
10:35 PM,19.4,10.4,68,29.78,9.0,WNW,8.1,-,N/A,,Overcast,300,2012-03-04 03:35:00
10:55 PM,19.4,10.4,68,29.78,5.0,NW,8.1,-,N/A,,Overcast,310,2012-03-04 03:55:00
11:15 PM,17.6,10.4,73,29.78,5.0,WNW,6.9,-,N/A,,Overcast,300,2012-03-04 04:15:00
11:35 PM,17.6,10.4,73,29.78,10.0,NW,6.9,-,N/A,,Overcast,310,2012-03-04 04:35:00
11:55 PM,17.6,10.4,73,29.79,10.0,WNW,6.9,-,N/A,,Overcast,300,2012-03-04 04:55:00